User: anonymous   Login
Location: Unspecified
(0.0000°N, 0.0000°E)
Time: 03:30:04
(UTC+02:00)
Language:

ATLAS V CENTAUR R/B - Orbit

View from above orbital plane
View from above orbital plane
View from above satellite
View from above satellite

Ground track
Ground track

The orbit data is extracted from the following two-line orbital elements,

1 27500U 02038B   16176.27453349  .00003139  00000-0  69755-3 0  9996
2 27500  17.9841 252.4601 6813390 316.7352   6.6478  2.89049305115450
Epoch (UTC): 24 June 2016 06:35:19
Eccentricity: 0.6813390
inclination: 17.9841°
perigee height: 255 km
apogee height: 28622 km
right ascension of ascending node: 252.4601°
argument of perigee: 316.7352°
revolutions per day: 2.89049305
mean anomaly at epoch: 6.6478°
orbit number at epoch: 11545

The dashed part of the orbit path shows where the satellite is in the earth's shadow,  

DLR